Regional Weather Roundup
Issued by NWS

Home | Current Version | Previous Version | Text Only | Print | Product List | Glossary On
Versions: 1 2 3 4 5 6 7 8 9 10 11 12 13 14 15 16 17 18 19 20 21 22 23 24 25 26 27 28 29 30 31 32 33 34 35 36 37 38 39 40 41 42 43 44 45 46 47 48 49 50
302
ASUS43 KMPX 231301
RWRMN
WEATHER ROUNDUP FOR MINNESOTA
NATIONAL WEATHER SERVICE TWIN CITIES/CHANHASSEN MN
700 AM CST THU FEB 23 2017


NOTE: "FAIR" INDICATES FEW OR NO CLOUDS BELOW 12,000 FEET WITH NO
SIGNIFICANT WEATHER AND/OR OBSTRUCTIONS TO VISIBILITY. N/A MEANS
CURRENT SKY AND/OR WEATHER CONDITIONS ARE NOT AVAILABLE.

MNZ060>063-068>070-231400-
   Twin Cities Metro

CITY           SKY/WX    TMP DP  RH WIND       PRES   REMARKS
TWIN CITIES    CLOUDY    32  25  75 N14G21    29.89F WCI  22
ST PAUL        CLOUDY    32  27  81 N8        29.91S WCI  25
CRYSTAL        PTCLDY    29  23  78 N8        29.89F WCI  21
BLAINE         MOCLDY    30  27  86 N7        29.91R WCI  23
LAKEVILLE      CLOUDY    30  27  86 N10       29.88S WCI  21
EDEN PRAIRIE   CLOUDY    31  25  78 N10       29.88F WCI  22
SOUTH ST PAUL  CLOUDY    33  27  79 N8        29.89F WCI  26
LAKE ELMO      CLOUDY    32  28  86 N9        29.90S WCI  24
$$
MNZ001>005-007-008-013>017-022>024-027-028-231400-
   Northwest Minnesota

CITY           SKY/WX    TMP DP  RH WIND       PRES   REMARKS
BEMIDJI        CLOUDY    24  18  80 N8        29.98R WCI  14
HALLOCK        CLOUDY    27  21  80 N6        30.06R WCI  20
ROSEAU         CLOUDY    25  18  74 N6        30.03R WCI  18
WARROAD        CLOUDY    21  14  73 N15G21    30.02R WCI   8
THIEF RVR FALL CLOUDY    24  19  81 NW3       30.05R
CROOKSTON      CLOUDY    27  21  80 N9        30.05F WCI  17
FOSSTON        CLOUDY    23  19  86 N10       30.01S WCI  12
DETROIT LAKES  CLEAR     25  23  93 N5        29.99R WCI  19
MOORHEAD       CLOUDY    28  23  80 N10       30.03S WCI  19
PARK RAPIDS    CLOUDY    24  16  71 N12       29.95F WCI  13
MAHNOMEN       CLOUDY    25  21  85 N15       30.00R WCI  12
$$
MNZ006-009>011-018-025>026-231400-
   North Central Minnesota

CITY           SKY/WX    TMP DP  RH WIND       PRES   REMARKS
BAUDETTE       CLOUDY    20  11  68 NW13      29.99R WCI   7
FLAG ISLAND    CLOUDY    19   9  63 N17       30.00R WCI   4
INTL FALLS     CLOUDY    24  15  68 NW7       29.95R WCI  16
WASKISH        CLOUDY    21  16  79 N6        30.00R WCI  14
BIG FORK       CLOUDY    25  18  74 CALM      29.96R
LONGVILLE      CLOUDY    21  19  93 N6        29.96F WCI  14
GRAND RAPIDS   CLOUDY    22  18  85 NW14      29.97R WCI   9
CRANE LAKE     CLOUDY    25  16  68 N6        29.94R WCI  18
ORR            CLOUDY    23  16  74 NW6       29.91R WCI  16
COOK           CLOUDY    21  18  86 NW7       29.94R WCI  13
WALKER         CLOUDY    22  17  82 N6        29.97S WCI  15
$$
MNZ012-019>021-037-231400-
   Northeast Minnesota

CITY           SKY/WX    TMP DP  RH WIND       PRES   REMARKS
DULUTH         CLOUDY    26  23  88 NW7       29.90R WCI  18
ELY            CLOUDY    25  19  80 W6        29.88R WCI  18
HIBBING        CLOUDY    22  19  89 N8        29.94R WCI  12
EVELETH        CLOUDY    25  19  80 NW8       29.93R WCI  16
DULUTH HARBOR  PTCLDY    30  25  80 NW12      29.94S WCI  21
TWO HARBORS    CLOUDY    30  25  80 N3        29.89S
SILVER BAY     CLOUDY    28  25  86 CALM      29.88R
GRAND MARAIS     N/A     31  19  61 CALM      29.87R
G MARAIS ARPRT MOCLDY    23  14  68 NW5       29.81R WCI  17
$$
MNZ029>031-032-039>041-046>048-054>057-064-231400-
   West Central Minnesota

CITY           SKY/WX    TMP DP  RH WIND       PRES   REMARKS
FERGUS FALLS   CLEAR     27  21  80 N10       30.01S WCI  17
WHEATON        CLEAR     27  25  93 NW9       29.99R WCI  17
MORRIS         CLEAR     28  27  93 N14       29.93R WCI  17
ALEXANDRIA     CLEAR     26  22  84 N13       29.92S WCI  15
ELBOW LAKE     FAIR      26  24  90 N10       29.95S WCI  17
WADENA         MOCLDY    25  21  86 N9        29.94S WCI  15
GLENWOOD       CLEAR     27  23  86 N13       29.91S WCI  16
APPLETON       PTCLDY    30  27  86 N10       29.94R WCI  21
BENSON         CLEAR     28  25  86 NE8       29.94R WCI  20
ORTONVILLE     PTCLDY    28  25  86 N13       29.95R WCI  18
MADISON        CLOUDY    30  30 100 N8        29.94R WCI  23
WILLMAR        FAIR      28  27  93 NE10      29.92S WCI  19
$$
MNZ033>034-036-042>043-049>051-058-059-231400-
   Central Minnesota

CITY           SKY/WX    TMP DP  RH WIND       PRES   REMARKS
ST CLOUD       CLOUDY    27  24  89 N9        29.92R WCI  18
SAUK CENTRE    FAIR      26  22  87 N9        29.92R WCI  16
PAYNESVILLE    CLEAR     27  24  88 N8        29.92S WCI  19
AITKIN         MOCLDY    25  18  74 N8        29.94R WCI  16
PINE RIVER     CLOUDY    25  21  86 N10       29.98S WCI  15
BRAINERD       CLOUDY    23  20  88 N13       29.94S WCI  11
STAPLES        CLOUDY    25  21  86 N12       29.94S WCI  14
LONG PRAIRIE   CLOUDY    27  23  86 NW10G16   29.92R WCI  17
LITTLE FALLS   CLOUDY    27  21  80 N6        29.93S WCI  20
LITCHFIELD     MOCLDY    28  25  86 N9        29.90F WCI  20
BUFFALO        CLOUDY    28  24  85 N8        29.92S WCI  20
MAPLE LAKE     PTCLDY    29  26  90 N10       29.92S WCI  19
HUTCHINSON     CLEAR     30  26  86 N6        29.91R WCI  24
$$
MNZ037-044-045-052-053-231400-
   East Central Minnesota

CITY           SKY/WX    TMP DP  RH WIND       PRES   REMARKS
PRINCETON      CLOUDY    28  25  86 N7        29.92R WCI  21
MORA           PTCLDY    27  23  86 N5        29.92S WCI  21
CAMBRIDGE      CLOUDY    30  21  69 N5        29.90R WCI  25
RUSH CITY      PTCLDY    27  23  86 N8        29.91R WCI  18
MOOSE LAKE     CLEAR     25  21  86 N8        29.91R WCI  16
HINCKLEY       FAIR      27  25  93 N10       29.91R WCI  17
CLOQUET        CLOUDY    25  21  86 NW12      29.91S WCI  14
MCGREGOR       CLOUDY    25  23  93 N12       29.94R WCI  14
$$
MNZ071>073-080-081-089-090-097-098-231400-
   Southwest Minnesota

CITY           SKY/WX    TMP DP  RH WIND       PRES   REMARKS
MONTEVIDEO     PTCLDY    28  27  93 N7        29.95R WCI  21
GRANITE FALLS  CLOUDY    32  28  86 N8        29.94R WCI  24
CANBY          CLOUDY    30  29  95 N7        29.95R WCI  23
MARSHALL       PTCLDY    30  27  88 N9        29.93R WCI  22
REDWOOD FALLS  CLOUDY    31  24  75 N7        29.90S WCI  24
OLIVIA         MOCLDY    30  27  86 N12       29.90S WCI  21
PIPESTONE      CLOUDY    30  25  80 NE14G20   29.85F WCI  20
WINDOM         CLOUDY    30  27  86 N15       29.88R WCI  19
WORTHINGTON    CLOUDY    29  26  89 NE22G28   29.84F WCI  15
JACKSON          N/A     32  28  86 N17       29.86S WCI  21
TRACY          CLOUDY    31  29  94 N12       29.91R WCI  21
SLAYTON        MOCLDY    29  27  93 N16       29.88S WCI  17
$$
MNZ065>067-074>077-082>085-091>093-231400-
   South Central Minnesota

CITY           SKY/WX    TMP DP  RH WIND       PRES   REMARKS
MANKATO          N/A     32  28  85 N13       29.87F WCI  22
NEW ULM        MOCLDY    30  25  80 N8G16     29.89R WCI  23
ST JAMES       CLOUDY    30  28  93 CALM      29.90R
FAIRMONT       CLOUDY    32  29  88 N12       29.88R WCI  23
GLENCOE        PTCLDY    31  29  92 N10G16    29.88F WCI  22
FARIBAULT      CLOUDY    34  30  86 N10       29.86S WCI  26
OWATONNA       CLOUDY    34  28  80 N12G18    29.85F WCI  25
WASECA         CLOUDY    32  30  93 N13G18    29.86F WCI  22
ALBERT LEA     CLOUDY    36  30  80 N9        29.84R
$$
MNZ078>079-086>088-094>096-231400-
   Southeast Minnesota

CITY           SKY/WX    TMP DP  RH WIND       PRES   REMARKS
ROCHESTER      CLOUDY    34  32  92 N15       29.82S WCI  24
RED WING       CLOUDY    36  28  75 N5        29.87S
STANTON        CLOUDY    35  30  83 N12       29.86S WCI  26
DODGE CENTER   CLOUDY    34  30  86 N14       29.83F WCI  24
WINONA         CLOUDY    37  32  81 N6        29.86R
AUSTIN         CLOUDY    34  30  86 NE10G17   29.84R WCI  26
PRESTON        CLOUDY    34  32  90 N10       29.84R WCI  26
$$
ABBREVIATIONS USED IN REMARKS
   TC - TEMPERATURES IN CELSIUS
  WCI - WIND CHILL INDEX
   HX - HEAT INDEX
  VSB - VISIBILITY
$$




USA.gov is the U.S. government's official web portal to all federal, state and local government web resources and services.